Location: Berkeley
(37.8716°N, 122.2727°W)
Time: 10:53:20
(UTC-07:00)

Envisat - Visible Passes

Search period start: 15 October 2018 00:00
Search period end: 25 October 2018 00:00
Orbit: 764 x 766 km, 98.2° (Epoch: 15 October)

Date Brightness Start Highest point End Pass type
(mag) Time Alt. Az. Time Alt. Az. Time Alt. Az.
15 Oct 3.7 19:22:00 10° SE 19:26:24 30° ENE 19:30:48 10° N visible
15 Oct 4.8 21:01:00 10° SSW 21:05:20 28° W 21:09:43 10° NW visible
16 Oct 3.3 20:23:26 10° S 20:28:28 66° WSW 20:33:32 10° NNW visible
17 Oct 3.1 19:46:52 10° SSE 19:51:47 54° ENE 19:56:44 10° N visible
17 Oct 5.7 21:28:05 10° SW 21:31:06 16° W 21:34:08 10° NW visible
18 Oct 4.0 19:11:17 10° ESE 19:15:18 24° ENE 19:19:21 10° NNE visible
18 Oct 4.4 20:49:27 10° SSW 20:54:06 36° W 20:58:47 10° NNW visible
19 Oct 2.9 20:12:13 10° SSE 20:17:17 85° WSW 20:22:24 10° NNW visible
20 Oct 3.3 19:35:55 10° SE 19:40:40 42° ENE 19:45:26 10° N visible
20 Oct 5.3 21:16:07 10° SW 21:19:49 20° W 21:23:33 10° NW visible
21 Oct 4.3 19:00:41 10° ESE 19:04:14 19° ENE 19:07:47 10° NNE visible
21 Oct 3.9 20:38:01 10° S 20:42:52 46° W 20:47:46 10° NNW visible
22 Oct 2.8 20:01:04 10° SSE 20:06:07 76° ENE 20:11:13 10° N visible
22 Oct 6.0 21:44:30 10° WSW 21:45:39 11° W 21:46:47 10° WNW visible
23 Oct 3.6 19:25:02 10° SE 19:29:33 33° ENE 19:34:05 10° N visible
23 Oct 5.0 21:04:22 10° SSW 21:08:34 26° W 21:12:46 10° NW visible
24 Oct 4.5 18:50:17 10° E 18:53:11 16° ENE 18:56:06 10° NNE visible
24 Oct 3.4 20:26:40 10° S 20:31:40 60° W 20:36:42 10° NNW visible
